Погода в Хоросткове

Украина / Тернопольская область     49°12′40″N   25°55′03″E
темп.,
°C
ветер,
м/с
пор.,
м/с
влажн.,
%
обл.,
%
осадки,
мм/ч
давл.,
гПа
погр.,
м
19 мая, ср
ср1900:00+11сз91690100 0.1 10031149
03:00+10зсз91596100 0.5 1004680
06:00+10сз81494100 0.4 1005844
09:00+10зсз81392100 0.4 1007822
12:00+12зсз8118398 0.3 10081020
15:00+11сз6118588 0.5 1010834
18:00+14сз7107326 0.2 10091252
21:00+10сз49864 0.2 1011238
20 мая, чт
чт2000:00+7ссз3109486 0.0 1011211
03:00+6сз3596100 0.0 101196
06:00+6ссз379682 0.0 1011136
09:00+11с5778100 0.0 1011623
12:00+14ссв4564100 0.1 10111350
15:00+15ссв4563100 0.1 10111225
18:00+15с5667100 0.3 10111110
21:00+12с51179100 0.4 1013472
21 мая, пт
пт2100:00+10с41085100 0.0 1014273
03:00+9с3983100 0.0 1015237
06:00+8с4985100 0.0 1016236
09:00+12с4676100 0.0 1017430
12:00+16ссв455791 0.2 10171627
15:00+16ссв2353100 0.3 10171405
18:00+17с334970 0.0 10171854
21:00+12ссв22645 0.0 101811
22 мая, сб
сб2200:00+9вюв22726 0.0 101810
03:00+8ююв22864 0.0 101817
06:00+8ю349099 0.0 101754
09:00+14ююв467199 0.0 1017428
12:00+18ююв555515 0.0 10151106
15:00+19ююв5652100 0.0 10141271
18:00+19ююв576479 0.0 1012983
21:00+14ю468780 0.0 101289
23 мая, вс
вс2300:00+12ю4988100 0.0 1012151
03:00+13зсз1184100 0.0 101110
06:00+12ю3382100 0.0 101130
09:00+14сз4477100 0.0 1011413
12:00+12ссз3384100 0.2 1013379
15:00+11сз5793100 2.4 1014346
18:00+11зсз2391100 0.9 1014138
21:00+10з3693100 0.9 1015128